COSMOS 2475 (743)

Last updated on Wed Jul 02 2025 00:03:16 GMT+0000 (Coordinated Universal Time)

1 37869U 11064C 25182.49975515 -.00000039 00000+0 00000+0 0 9999 2 37869 65.0831 84.8232 0024707 253.3807 292.4153 2.13101971106292
UTC large
Height (km)
Speed (km/s)
/
Latitude / Longitude
Inclination (degrees)
Orbital Period (minutes)
Azimuth
Elevation
Range (km)
Doppler Factor

Next 0 passes for location: London (51.5072 / 0.1276)

Sorry there are no passes over London.